Tracking 35331 objects as of 15-Sep-2026
HD Live streaming from Space Station
objects crossing your sky now

FREGAT DEB


FREGAT DEB is no longer on orbit


NORAD ID: 52955
Int'l Code: 2011-037PJ
Launch date: July 18, 2011
Source: Commonwealth of Independent States (former USSR) (CIS)
Launch site: TYURATAM MISSILE AND SPACE COMPLEX (TTMTR)
Decay date: 2022-08-29

Note: This is SATELLITE DEBRIS
Your satellite tracking list
Your tracking list is empty




NASA's NSSDC Master Catalog

Two Line Element Set (TLE):
1 52955U 11037PJ  22231.05381212  .04133676  00000-0  75661-1 0  9996
2 52955  51.2785 144.6622 0333798  66.2196 297.3394 15.02611172 14260
Source of the keplerian elements: AFSPC